Location: Munkebjergskolens Observatorium
(55.3864°N, 10.3987°E)
Time: 03:31:38
(UTC+02:00)

QB50P2 - Pass Details

Date: 05 April 2023
Orbit: 581 x 596 km, 98.0° (Epoch: 31 May)

Event Time Altitude Azimuth Distance (km) Brightness Sun altitude
Rises 03:53:39 0° 12° (NNE) 2,839 ? -21.1°
Reaches altitude 10° 03:55:52 10° 7° (N) 1,930 ? -20.9°
Maximum altitude 03:59:55 51° 292° (WNW) 747 ? -20.5°
Enters shadow 04:00:23 48° 267° (W) 774 ? -20.4°
